{"data":{"norad_id":67951,"epoch":"2026-09-19T11:23:27.831552Z","epoch_age_seconds":151764,"freshness":"FRESH","line1":"1 67951U 26037V   26262.47462768  .00008731  00000+0  32635-3 0  9998","line2":"2 67951  43.0018 176.6631 0001155 268.2796  91.7924 15.27588589 32979","mean_motion":15.27588589,"eccentricity":0.0001155,"inclination_deg":43.0018,"raan_deg":176.6631,"arg_perigee_deg":268.2796,"mean_anomaly_deg":91.7924,"bstar":0.00032635,"rev_number":3297,"period_min":94.26621869064,"perigee_km":482.23091358067,"apogee_km":483.81584162789,"semimajor_km":6861.1603776043,"source":"CELESTRAK","updated_at":"2026-09-20T09:00:43.710795Z"}}